Satellite: NOAA-14
Catalog number: 23455
Epoch time: 08304.51276732
Element set: 366
Inclination: 098.9354 deg
RA of node: 016.7464 deg
Eccentricity: 0.0010291
Arg of perigee: 119.9880 deg
Mean anomaly: 240.2313 deg
Mean motion: 14.13749933 rev/day
Decay rate: -2.07e-06 rev/day^2
Epoch rev: 71347
Checksum: 303
Satellite: NOAA-15
Catalog number: 25338
Epoch time: 08304.54852311
Element set: 679
Inclination: 098.5665 deg
RA of node: 293.0488 deg
Eccentricity: 0.0010867
Arg of perigee: 012.6103 deg
Mean anomaly: 347.5329 deg
Mean motion: 14.24730127 rev/day
Decay rate: -2.5e-07 rev/day^2
Epoch rev: 54407
Checksum: 304
Satellite: RESURS
Catalog number: 25394
Epoch time: 08303.72047135
Element set: 57
Inclination: 098.3704 deg
RA of node: 341.4448 deg
Eccentricity: 0.0001638
Arg of perigee: 131.2886 deg
Mean anomaly: 228.8434 deg
Mean motion: 14.24173835 rev/day
Decay rate: -1.2e-07 rev/day^2
Epoch rev: 53559
Checksum: 294
Satellite: FENGYUN1
Catalog number: 25730
Epoch time: 08303.95680434
Element set: 0620
Inclination: 098.7357 deg
RA of node: 275.2598 deg
Eccentricity: 0.0020611
Arg of perigee: 142.2543 deg
Mean anomaly: 218.0073 deg
Mean motion: 14.07831034 rev/day
Decay rate: 6.75e-06 rev/day^2
Epoch rev: 48792
Checksum: 296
Satellite: OKEAN-0
Catalog number: 25860
Epoch time: 08303.90865633
Element set: 0511
Inclination: 097.7636 deg
RA of node: 288.5910 deg
Eccentricity: 0.0000877
Arg of perigee: 098.1547 deg
Mean anomaly: 261.9759 deg
Mean motion: 14.73541915 rev/day
Decay rate: 3.6e-07 rev/day^2
Epoch rev: 49923
Checksum: 335
Satellite: NOAA-16
Catalog number: 26536
Epoch time: 08304.50366929
Element set: 154
Inclination: 099.1679 deg
RA of node: 296.7278 deg
Eccentricity: 0.0010196
Arg of perigee: 202.2438 deg
Mean anomaly: 157.8287 deg
Mean motion: 14.12499882 rev/day
Decay rate: -2.17e-06 rev/day^2
Epoch rev: 41787
Checksum: 348
Satellite: NOAA-17
Catalog number: 27453
Epoch time: 08304.52293975
Element set: 153
Inclination: 098.5198 deg
RA of node: 005.1239 deg
Eccentricity: 0.0012660
Arg of perigee: 075.8852 deg
Mean anomaly: 284.3742 deg
Mean motion: 14.24012613 rev/day
Decay rate: -6.9e-07 rev/day^2
Epoch rev: 33006
Checksum: 298
Satellite: NOAA-18
Catalog number: 28654
Epoch time: 08304.54604388
Element set: 639
Inclination: 098.8806 deg
RA of node: 243.8792 deg
Eccentricity: 0.0013573
Arg of perigee: 293.4920 deg
Mean anomaly: 066.4826 deg
Mean motion: 14.11204104 rev/day
Decay rate: 1.50e-06 rev/day^2
Epoch rev: 17756
Checksum: 319
/EX
SB KEPS @ AMSAT $ORB08304.M
Orbital Elements 08304.MISC
HR AMSAT ORBITAL ELEMENTS FOR MANNED AND MISCELLANEOUS SATELLITES
FROM WA5QGD FORT WORTH,TX October 30, 2008
Send Subscribe/unsubscribe to KEPS at
http://www.amsat.org/mailman/listinfo/keps
BID: ORB08304.M
TO ALL RADIO AMATEURS BT
Satellite: HUBBLE
Catalog number: 20580
Epoch time: 08303.90964857
Element set: 0263
Inclination: 028.4685 deg
RA of node: 164.5122 deg
Eccentricity: 0.0003549
Arg of perigee: 014.5435 deg
Mean anomaly: 345.5257 deg
Mean motion: 15.00422136 rev/day
Decay rate: 3.25e-06 rev/day^2
Epoch rev: 81523
Checksum: 278
Satellite: PO-34
Catalog number: 25520
Epoch time: 08303.51652626
Element set: 0121
Inclination: 028.4604 deg
RA of node: 359.4173 deg
Eccentricity: 0.0005177
Arg of perigee: 303.9412 deg
Mean anomaly: 056.0690 deg
Mean motion: 15.17248645 rev/day
Decay rate: 3.20e-06 rev/day^2
Epoch rev: 55358
Checksum: 280
Satellite: ISS
Catalog number: 25544
Epoch time: 08304.49799380
Element set: 549
Inclination: 051.6426 deg
RA of node: 042.7042 deg
Eccentricity: 0.0003582
Arg of perigee: 279.9093 deg
Mean anomaly: 182.3738 deg
Mean motion: 15.72248135 rev/day
Decay rate: 1.0423e-04 rev/day^2
Epoch rev: 56982
Checksum: 319
Satellite: CO-58
Catalog number: 28895
Epoch time: 08303.61237191
Element set: 0157
Inclination: 098.0814 deg
RA of node: 194.3241 deg
Eccentricity: 0.0017636
Arg of perigee: 353.2460 deg
Mean anomaly: 006.8504 deg
Mean motion: 14.59708385 rev/day
Decay rate: 3.3e-07 rev/day^2
Epoch rev: 16009
Checksum: 308
Satellite: FALCON
Catalog number: 30776
Epoch time: 08303.68818387
Element set: 427
Inclination: 035.4333 deg
RA of node: 057.7190 deg
Eccentricity: 0.0000864
Arg of perigee: 024.2926 deg
Mean anomaly: 335.7831 deg
Mean motion: 15.03086916 rev/day
Decay rate: 3.65e-06 rev/day^2
Epoch rev: 9039
Checksum: 305
Satellite: MAST
Catalog number: 31126
Epoch time: 08303.20960784
Element set: 0449
Inclination: 098.0227 deg
RA of node: 002.1779 deg
Eccentricity: 0.0093678
Arg of perigee: 276.7039 deg
Mean anomaly: 082.3517 deg
Mean motion: 14.53453781 rev/day
Decay rate: 1.23e-06 rev/day^2
Epoch rev: 08148
Checksum: 304
Satellite: CAPE1
Catalog number: 31130
Epoch time: 08303.70805306
Element set: 441
Inclination: 098.0244 deg
RA of node: 001.3566 deg
Eccentricity: 0.0101824
Arg of perigee: 278.9416 deg
Mean anomaly: 080.0264 deg
Mean motion: 14.52001696 rev/day
Decay rate: -7.0e-07 rev/day^2
Epoch rev: 8124
Checksum: 249
Satellite: COMPASS
Catalog number: 32787
Epoch time: 08303.39227820
Element set: 0198
Inclination: 097.9749 deg
RA of node: 002.7919 deg
Eccentricity: 0.0016947
Arg of perigee: 063.7860 deg
Mean anomaly: 296.5099 deg
Mean motion: 14.81484487 rev/day
Decay rate: 2.16e-06 rev/day^2
Epoch rev: 02727
Checksum: 347
Satellite: AAUSAT2
Catalog number: 32788
Epoch time: 08303.85139357
Element set: 186
Inclination: 097.9749 deg
RA of node: 003.2719 deg
Eccentricity: 0.0016627
Arg of perigee: 064.0816 deg
Mean anomaly: 296.2088 deg
Mean motion: 14.81596156 rev/day
Decay rate: -1.69e-06 rev/day^2
Epoch rev: 2734
Checksum: 337
Satellite: DO-64
Catalog number: 32789
Epoch time: 08304.67579147
Element set: 197
Inclination: 097.9757 deg
RA of node: 004.1402 deg
Eccentricity: 0.0016709
Arg of perigee: 059.6474 deg
Mean anomaly: 300.6893 deg
Mean motion: 14.81513594 rev/day
Decay rate: 5.02e-06 rev/day^2
Epoch rev: 2746
Checksum: 336
Satellite: CO-66
Catalog number: 32791
Epoch time: 08303.41007460
Element set: 0181
Inclination: 097.9773 deg
RA of node: 002.8321 deg
Eccentricity: 0.0017333
Arg of perigee: 060.8391 deg
Mean anomaly: 299.4556 deg
Mean motion: 14.81335073 rev/day
Decay rate: 3.79e-06 rev/day^2
Epoch rev: 02724
Checksum: 301
Satellite: RS-30
Catalog number: 32953
Epoch time: 08303.74755498
Element set: 0146
Inclination: 082.5045 deg
RA of node: 039.9036 deg
Eccentricity: 0.0018163
Arg of perigee: 323.8421 deg
Mean anomaly: 036.1425 deg
Mean motion: 12.42997932 rev/day
Decay rate: 1.0e-07 rev/day^2
Epoch rev: 01976
Checksum: 299
/EX
More information about the Keps
mailing list